This demonstration page uses our WeatherBlox Daily Observations layout. Learn more.

Left ArrowRight Arrow

Hourly Observations for August 25, 2018

Temp ( °F °C ) Dew Point ( °F °C ) Humidity (%) Winds ( mph kmh ) Pressure ( in mb ) Visibility ( mi km ) Precip ( " mm )
12:15 am 00:15 Cloudy 67 19.6 62 16.7 83 83 S 8 13 30.06 1018 10 16 0.00 0.00
12:35 am 00:35 Cloudy 67 19.4 62 16.8 85 85 S 9 15 30.06 1018 10 16 0.00 0.00
12:55 am 00:55 Partly Cloudy 66 19.1 62 16.8 87 87 S 8 13 30.06 1018 10 16 0.00 0.00
1:15 am 01:15 Partly Cloudy 66 19.1 63 17 88 88 S 8 13 30.06 1018 10 16 0.00 0.00
1:35 am 01:35 Cloudy 67 19.6 63 17.2 86 86 S 7 11 30.06 1018 10 16 0.00 0.00
1:55 am 01:55 Cloudy 67 19.7 63 17.3 86 86 S 9 15 30.06 1018 10 16 0.00 0.00
2:15 am 02:15 Cloudy 68 20 64 17.5 86 86 S 9 15 30.06 1018 10 16 0.00 0.00
2:35 am 02:35 Cloudy 68 19.9 64 17.5 86 86 S 8 13 30.06 1018 10 16 0.00 0.00
2:55 am 02:55 Cloudy 68 20 64 17.7 87 87 S 9 15 30.06 1018 10 16 0.00 0.00
3:15 am 03:15 Cloudy 68 20.1 64 18 88 88 S 10 17 30.06 1018 10 16 0.00 0.00
3:35 am 03:35 Cloudy 69 20.4 64 18 86 86 S 10 17 30.06 1018 10 16 0.00 0.00
3:55 am 03:55 Cloudy 69 20.5 64 18 86 86 S 9 15 30.06 1018 10 16 0.00 0.00
4:15 am 04:15 Cloudy 69 20.5 64 18 86 86 S 8 13 30.06 1018 10 16 0.00 0.00
4:35 am 04:35 Cloudy 69 20.6 64 18 85 85 S 10 17 30.03 1017 10 16 0.00 0.00
4:55 am 04:55 Cloudy 69 20.6 65 18.1 86 86 S 13 20 30.03 1017 10 16 0.00 0.00
5:15 am 05:15 Cloudy 69 20.6 64 18 85 85 S 10 17 30.03 1017 10 16 0.00 0.00
5:35 am 05:35 Cloudy 69 20.5 65 18.1 86 86 S 12 19 30.03 1017 10 16 0.00 0.00
5:55 am 05:55 Partly Cloudy 68 20.1 65 18.1 88 88 S 10 17 30.03 1017 10 16 0.00 0.00
6:15 am 06:15 Mostly Cloudy 69 20.3 65 18.1 87 87 S 9 15 30.03 1017 10 16 0.00 0.00
6:35 am 06:35 Cloudy 68 20.2 65 18.2 88 88 S 13 20 30.00 1016 10 16 0.00 0.00
6:55 am 06:55 Mostly Cloudy 68 20.2 65 18.1 88 88 S 12 19 30.00 1016 10 16 0.00 0.00
7:15 am 07:15 Mostly Cloudy 68 20.2 65 18.2 88 88 S 14 22 30.00 1016 10 16 0.00 0.00
7:35 am 07:35 Mostly Cloudy with Nearby Thunderstorms 69 20.3 65 18.2 88 88 S 10 17 30.03 1017 10 16 0.00 0.00
7:55 am 07:55 Cloudy with Thunderstorms 68 20.2 65 18.6 91 91 SSW 14 22 30.03 1017 7 11 0.00 0.00
8:15 am 08:15 Cloudy with Thunderstorms 67 19.7 66 19 96 96 SW 14 22 30.06 1018 4 6 0.08 2.03
8:35 am 08:35 Mostly Cloudy with Thunderstorms 66 19.1 66 19 99 99 S 10 17 30.06 1018 4 6 0.16 4.06
8:55 am 08:55 Mostly Cloudy with Nearby Thunderstorms 67 19.2 66 19 99 99 S 13 20 30.06 1018 7 11 0.17 4.32
9:15 am 09:15 Partly Cloudy 67 19.2 66 19.1 99 99 S 13 20 30.03 1017 5 8 0.02 0.51
9:35 am 09:35 Partly Cloudy with Light Rain 67 19.5 67 19.2 98 98 S 15 24 30.03 1017 7 11 0.02 0.51
9:55 am 09:55 Sunny with Nearby Thunderstorms 68 20 67 19.5 97 97 SSW 14 22 30.03 1017 7 11 0.02 0.51
10:15 am 10:15 Mostly Cloudy with Nearby Thunderstorms 68 20.2 68 19.8 98 98 SSW 12 19 30.06 1018 10 16 0.00 0.00
10:35 am 10:35 Cloudy 69 20.4 67 19.7 96 96 SSW 24 39 30.06 1018 5 8 0.02 0.51
10:55 am 10:55 Windy with Storms Likely 67 19.5 67 19.5 100 100 SSW 20 31 30.06 1018 4 6 0.08 2.03
11:15 am 11:15 Cloudy with Thunderstorms 68 20.1 68 19.8 98 98 SSW 22 35 30.06 1018 10 16 0.01 0.25
11:35 am 11:35 Cloudy 67 19.5 67 19.5 100 100 SSW 20 31 30.06 1018 3 5 0.09 2.29
11:55 am 11:55 Cloudy with Thunderstorms 68 19.9 68 19.9 100 100 SSW 18 30 30.06 1018 4 6 0.16 4.06
12:15 pm 12:15 Cloudy with Thunderstorms 67 19.5 67 19.5 100 100 SSW 17 28 30.06 1018 3 5 0.04 1.02
12:35 pm 12:35 Cloudy with Thunderstorms 67 19.3 67 19.3 100 100 S 21 33 30.03 1017 5 8 0.05 1.27
12:55 pm 12:55 Cloudy with Thunderstorms 68 20.2 68 20.2 100 100 S 14 22 30.06 1018 7 11 0.06 1.52
1:15 pm 13:15 Cloudy with Thunderstorms 69 20.5 69 20.5 100 100 S 15 24 30.06 1018 7 11 0.00 0.00
1:35 pm 13:35 Cloudy with Thunderstorms 70 21.2 69 20.7 97 97 S 13 20 30.06 1018 7 11 0.00 0.00
1:55 pm 13:55 Cloudy with Nearby Thunderstorms 72 22.4 70 21.2 93 93 S 10 17 30.03 1017 7 11 0.00 0.00
2:15 pm 14:15 Cloudy with Thunderstorms 71 21.8 70 21.1 96 96 S 9 15 30.03 1017 7 11 0.00 0.00
2:35 pm 14:35 Cloudy 73 22.7 71 21.6 94 94 S 10 17 30.03 1017 7 11 0.00 0.00
2:55 pm 14:55 Cloudy with Nearby Thunderstorms 73 22.6 71 21.4 93 93 S 7 11 30.03 1017 10 16 0.00 0.00
3:15 pm 15:15 Cloudy 74 23.1 71 21.5 91 91 S 9 15 30.00 1016 10 16 0.00 0.00
3:35 pm 15:35 Cloudy with Thunderstorms 73 22.6 71 21.6 94 94 S 10 17 30.00 1016 7 11 0.01 0.25
3:55 pm 15:55 Cloudy with Thunderstorms 73 22.6 71 21.4 93 93 SSW 5 7 30.00 1016 7 11 0.01 0.25
4:15 pm 16:15 Cloudy with Thunderstorms 70 21.3 70 21.3 100 100 SE 6 9 30.03 1017 1 2 0.29 7.37
4:35 pm 16:35 Cloudy with Thunderstorms 71 21.4 71 21.4 100 100 ESE 3 6 30.03 1017 4 6 0.30 7.62
4:55 pm 16:55 Cloudy with Nearby Thunderstorms 71 21.7 71 21.7 100 100 ESE 3 6 30.00 1016 4 6 0.31 7.87
5:15 pm 17:15 Cloudy 71 21.7 71 21.7 100 100 Calm 30.00 1016 3 5 0.00 0.00
5:35 pm 17:35 Cloudy with Nearby Thunderstorms 72 22 72 22 100 100 SSE 5 7 30.00 1016 5 8 0.00 0.00
5:55 pm 17:55 Cloudy with Mist and Fog 72 22.2 72 22.2 100 100 SE 3 6 30.00 1016 5 8 0.01 0.25
6:15 pm 18:15 Cloudy with Mist and Fog 72 22.3 72 22.3 100 100 SE 3 6 30.00 1016 4 6 0.00 0.00
6:35 pm 18:35 Cloudy with Mist and Fog 72 22.3 72 22.3 100 100 SE 3 6 30.00 1016 4 6 0.00 0.00
6:55 pm 18:55 Cloudy with Mist and Fog 72 22.3 72 22.3 100 100 SE 5 7 30.00 1016 4 6 0.00 0.00
7:15 pm 19:15 Cloudy with Mist and Fog 72 22.4 72 22.4 100 100 ESE 5 7 30.00 1016 3 5 0.00 0.00
7:35 pm 19:35 Cloudy with Rain 72 22.1 72 22.1 100 100 ESE 3 6 30.00 1016 2 3 0.04 1.02
7:55 pm 19:55 Cloudy with Rain 71 21.8 71 21.8 100 100 ESE 5 7 30.00 1016 4 6 0.06 1.52
8:15 pm 20:15 Cloudy with Light Rain 71 21.7 71 21.7 100 100 ESE 6 9 30.00 1016 4 6 0.01 0.25
8:35 pm 20:35 Cloudy with Light Rain 72 22 72 22 100 100 SE 5 7 30.00 1016 4 6 0.03 0.76
8:55 pm 20:55 Cloudy with Mist and Fog 72 22 72 22 100 100 SE 3 6 30.00 1016 5 8 0.03 0.76
9:15 pm 21:15 Mostly Cloudy 71 21.8 71 21.8 100 100 SSE 6 9 30.00 1016 7 11 0.00 0.00
9:35 pm 21:35 Mostly Cloudy with Mist and Fog 71 21.8 71 21.8 100 100 SSE 5 7 30.03 1017 5 8 0.00 0.00
9:55 pm 21:55 Mostly Cloudy with Mist and Fog 71 21.8 71 21.8 100 100 SE 3 6 30.03 1017 5 8 0.00 0.00
10:15 pm 22:15 Partly Cloudy with Mist and Fog 70 21.2 70 21.2 100 100 SSE 5 7 30.06 1018 4 6 0.00 0.00
10:35 pm 22:35 Partly Cloudy with Mist and Fog 70 21.1 70 21.1 100 100 SSE 5 7 30.06 1018 4 6 0.00 0.00
10:55 pm 22:55 Partly Cloudy with Mist and Fog 71 21.5 71 21.5 100 100 S 3 6 30.06 1018 4 6 0.00 0.00
11:15 pm 23:15 Mostly Cloudy with Mist and Fog 72 22 72 22 100 100 S 3 6 30.03 1017 5 8 0.00 0.00
11:35 pm 23:35 Mostly Cloudy 72 22 72 22 100 100 S 5 7 30.03 1017 7 11 0.00 0.00
11:55 pm 23:55 Partly Cloudy 72 22.2 72 22.2 100 100 SSW 7 11 30.03 1017 7 11 0.00 0.00

Powered by AerisWeather